Weather Roundup
Issued by NWS Chicago, IL

Home | Current Version | Previous Version | Graphics & Text | Print | Product List | Glossary On
Versions: 1 2 3 4 5 6 7 8 9 10 11 12 13 14 15 16 17 18 19 20 21 22 23 24 25 26 27 28 29 30 31 32 33 34 35 36 37 38 39 40 41 42 43 44 45 46 47 48 49 50
000
NZUS59 KLOT 060202
HRRLOT

CHICAGO AREA WEATHER ROUNDUP
NATIONAL WEATHER SERVICE CHICAGO/ROMEOVILLE IL
900 PM CDT TUE MAY 05 2015

NOTE: "FAIR" INDICATES FEW OR NO CLOUDS BELOW 12,000 FEET WITH NO
SIGNIFICANT WEATHER AND/OR OBSTRUCTIONS TO VISIBILITY.

* THESE STATIONS ARE NOT UNDER NWS QUALITY CONTROL. THEY ALSO MAY NOT
  REPORT WEATHER SUCH AS PRECIPITATION OR FOG.

ILZ005-006-012>014-019>023-060300-
NORTHEAST ILLINOIS

CITY           SKY/WX    TMP DP  RH WIND       PRES   REMARKS
OHARE          CLOUDY    49  47  93 NE7       30.21S FOG
MIDWAY         MOCLDY    54  49  83 NE6       30.21R
AURORA         CLOUDY    53  49  86 E13       30.20S FOG
WAUKEGAN       CLOUDY    46  46 100 NE8       30.23R FOG
DUPAGE AIRPORT FOG       51  50  96 NE9       30.20S VSB 1
WHEELING       FOG       47  46  97 NE6       30.24R VSB 1/2
NORTHERLY IS     N/A     47  45  93 N10         N/A
$$

WIZ051-052-058>065-066-070>072-060300-
SOUTHEAST WISCONSIN

CITY           SKY/WX    TMP DP  RH WIND       PRES   REMARKS
MILWAUKEE      CLOUDY    46  41  82 NE5       30.25R
KENOSHA*       CLOUDY    48  46  93 E10       30.24R
RACINE*        CLOUDY    45  41  86 NE6       30.26R
WAUKESHA       MOCLDY    48  45  87 E6        30.25R
$$

INZ001>003-010>013-019-020-060300-
NORTHWEST INDIANA

CITY           SKY/WX    TMP DP  RH WIND       PRES   REMARKS
GARY*          CLOUDY    50 N/A N/A N5        30.21  FOG
MICHIGAN CITY* NOT AVBL
RENSSELAER*    NOT AVBL
$$

LMZ740>746-060300-
SOUTHERN LAKE MICHIGAN

STATION/POSITION TIME  SKY/WX   TEMP WIND        PRES    VSBY
                                AIR  DIR/SP/G
                 (UTC)          (F)  (DEG/KT/KT) (MB)    (MI)
HARRISON CRIB    0100            45  350/  9/ 10   N/A
BURNHAM HARBOR   0200            47  360/  7/ 11   N/A
CALUMET HARBOR   0100            47  340/  7/  9   N/A
BURNS HARBOR     0100            52  310/  4/  5 1022.7R
MICHIGAN CITY    0100            56   40/  5/  6   N/A
$$

ABBREVIATIONS USED IN REMARKS
   TC - TEMPERATURE IN CELSIUS
  WCI - WIND CHILL INDEX
   HX - HEAT INDEX
  VSB - VISIBILITY
$$



USA.gov is the U.S. government's official web portal to all federal, state and local government web resources and services.